[[{"header":{"parameterUnit":"m.s-1","parameterCategory":1,"la1":30.2991,"la2":30.254,"lo1":-89.0895,"lo2":-89.0444,"dy":0.0017,"dx":0.0017,"nx":28,"ny":28,"refTime":"2025-01-01T09:00:00:Z","depth":0,"parameterNumber":2,"parameterNumberName":"U-component_of_WINDS"},"data":[0,0,0,0,0,0,0,0,0,0,0,0,0,0,0,0,0,0,0,0,0,0,0,0,0,0,0,0,0,0,0,0,0,0,0,0,0,0,0,0,0,0,0,0,0,0,0,0,0,0,0,0,0,0,0,0,0,0,-1.1877,-1.1877,0,-1.1912,-1.1912,-1.1913,-1.1874,-1.1872,-1.1871,-1.187,-1.1908,-1.1911,-1.1913,0,0,0,0,0,0,0,0,0,0,0,0,0,-1.1777,-1.1779,-1.1877,-1.1877,-1.1877,-1.1912,-1.1912,-1.1913,-1.1874,-1.1872,-1.1871,-1.1869,-1.1907,-1.191,-1.1913,0,0,0,0,0,0,0,0,0,0,0,0,0,-1.1817,-1.178,-1.1876,-1.1862,-1.1861,-1.1912,-1.1912,-1.1913,-1.1875,-1.1872,-1.187,-1.1868,-1.1907,-1.191,-1.1914,-1.1981,0,0,-1.1925,-1.1926,0,0,0,0,0,0,0,0,-1.1815,-1.1821,-1.1864,-1.1863,-1.1862,-1.1886,-1.1891,-1.1936,-1.1875,-1.187,-1.187,-1.1867,-1.1903,-1.1907,-1.1918,-1.1982,-1.1984,-1.1925,-1.1927,-1.1929,-1.193,0,0,0,0,0,0,0,-1.1812,-1.1819,-1.1891,-1.1865,-1.1864,-1.1855,-1.1858,-1.19,-1.1898,-1.187,-1.1867,-1.1872,-1.1902,-1.1915,-1.1919,-1.1985,-1.1925,-1.1928,-1.193,-1.1932,-1.2106,-1.2108,0,0,0,0,0,0,-1.1811,-1.1817,-1.1889,-1.1892,-1.1833,-1.1858,-1.1862,-1.1881,-1.1898,-1.1898,-1.1874,-1.187,-1.191,-1.1915,-1.192,-1.2001,-1.1929,-1.1932,-1.1934,-1.2103,-1.2106,-1.2109,0,0,0,0,0,0,-1.1809,-1.1818,-1.1888,-1.1854,-1.1862,-1.1862,-1.1884,-1.1883,-1.1896,-1.1901,-1.19,-1.1887,-1.1908,-1.1915,-1.1966,-1.2001,-1.1934,-1.1937,-1.21,-1.2104,-1.2108,-1.2162,0,0,0,0,0,0,-1.1806,-1.1817,-1.1842,-1.1855,-1.1864,-1.1933,-1.1886,-1.1885,-1.1902,-1.1897,-1.1913,-1.1914,-1.1907,-1.1961,-1.1969,-1.2005,-1.194,-1.2097,-1.2102,-1.2106,-1.2157,-1.2167,-1.2175,0,0,0,0,0,-1.1803,-1.1857,-1.1844,-1.1853,-1.1895,-1.1935,-1.194,-1.1931,-1.1905,-1.193,-1.1933,-1.1913,-1.1995,-1.1966,-1.1976,-1.2013,-1.2095,-1.2101,-1.2106,-1.2153,-1.2165,-1.2175,0,0,0,0,0,0,-1.185,-1.1858,-1.1844,-1.1903,-1.1919,-1.1928,-1.1961,-1.1944,-1.1968,-1.1963,-1.1951,-1.1955,-1.2009,-1.2015,-1.1983,-1.2079,-1.2041,-1.2049,-1.2073,-1.2085,-1.2094,-1.2092,-1.1943,0,0,0,0,0,-1.1867,-1.1898,-1.1903,-1.1955,-1.1963,-1.1961,-1.1978,-1.1969,-1.1985,-1.1991,-1.1998,-1.2015,-1.2044,-1.2064,-1.2092,-1.2156,-1.216,-1.2187,-1.2196,-1.2203,-1.2211,-1.2247,-1.2259,-1.2127,-1.2127,-1.2127,0,0,-1.1903,-1.1911,-1.1932,-1.1965,-1.1976,-1.2009,-1.1967,-1.2003,-1.2028,-1.1997,-1.2046,-1.2051,-1.2069,-1.2127,-1.2153,-1.2134,-1.2248,-1.2211,-1.2217,-1.222,-1.2254,-1.2266,-1.2277,-1.2131,-1.213,-1.213,0,0,-1.1986,-1.1994,-1.2039,-1.205,-1.2067,-1.2065,-1.2075,-1.2087,-1.209,-1.2138,-1.2115,-1.2144,-1.2195,-1.2209,-1.2223,-1.231,-1.2293,-1.2319,-1.2368,-1.2403,-1.2414,-1.2423,-1.2456,-1.2467,-1.2326,-1.2326,-1.2326,0,-1.2029,-1.2078,-1.2064,-1.2103,-1.2118,-1.209,-1.2136,-1.2147,-1.2173,-1.2184,-1.2162,-1.2226,-1.2236,-1.2297,-1.2318,-1.233,-1.2342,-1.2319,-1.2413,-1.2422,-1.2431,-1.2462,-1.2474,-1.2329,-1.2329,-1.2329,-1.2328,0,-1.213,-1.2164,-1.2198,-1.2223,-1.2241,-1.2283,-1.2277,-1.2298,-1.2287,-1.2287,-1.2336,-1.2347,-1.2376,-1.239,-1.238,-1.245,-1.2438,-1.2415,-1.2377,-1.2447,-1.2476,-1.2487,-1.2334,-1.2333,-1.2332,-1.2331,0,0,-1.2247,-1.2262,-1.2275,-1.2286,-1.2301,-1.2327,-1.2368,-1.2395,-1.2414,-1.2432,-1.2467,-1.2509,-1.2488,-1.2504,-1.2494,-1.2525,-1.2594,-1.2498,-1.2498,-1.2517,-1.2674,-1.2693,-1.2707,-1.2582,-1.2584,-1.2586,-1.2673,0,-1.2332,-1.2401,-1.239,-1.2458,-1.2489,-1.2462,-1.2497,-1.2511,-1.2512,-1.2539,-1.254,-1.2571,-1.2539,-1.2549,-1.2577,-1.258,-1.2626,-1.2573,-1.2615,-1.2617,-1.2615,-1.2722,-1.2743,-1.2825,-1.2684,-1.2686,-1.2688,0,-1.244,-1.2462,-1.2533,-1.2543,-1.2556,-1.2588,-1.2612,-1.2638,-1.2653,-1.2651,-1.2668,-1.2653,-1.2694,-1.2654,-1.271,-1.2675,-1.2691,-1.2694,-1.2697,-1.2703,-1.2659,-1.2733,-1.2851,-1.2864,-1.2705,-1.2704,-1.2702,0,-1.2521,-1.2566,-1.2615,-1.2625,-1.2638,-1.2661,-1.2668,-1.268,-1.2697,-1.2719,-1.273,-1.2756,-1.2771,-1.2792,-1.2784,-1.2755,-1.2843,-1.2802,-1.2844,-1.2845,-1.2867,-1.2866,-1.2991,-1.2873,-1.2873,-1.2872,-1.2872,0,-1.2618,-1.2663,-1.2651,-1.2682,-1.2731,-1.2717,-1.2767,-1.277,-1.2781,-1.2812,-1.2789,-1.2819,-1.2806,-1.2835,-1.2829,-1.2878,-1.2884,-1.2885,-1.2883,-1.2889,-1.2889,-1.2901,-1.2896,-1.2876,-1.2875,-1.2874,-1.2874,0,-1.2718,-1.2711,-1.2763,-1.277,-1.2773,-1.2809,-1.2816,-1.2845,-1.2842,-1.2882,-1.289,-1.2887,-1.292,-1.2914,-1.295,-1.2946,-1.3008,-1.2998,-1.3003,-1.3002,-1.3046,-1.3042,-1.3185,-1.3204,-1.3071,-1.3073,-1.3074,0,-1.2782,-1.2816,-1.2826,-1.2845,-1.2853,-1.2883,-1.2901,-1.2887,-1.2907,-1.2926,-1.2952,-1.2982,-1.3006,-1.306,-1.3062,-1.3089,-1.3081,-1.3129,-1.3085,-1.309,-1.3085,-1.3084,-1.3088,-1.3139,-1.314,-1.3142,-1.3143,0,-1.2897,-1.2891,-1.2917,-1.2942,-1.2963,-1.2982,-1.2999,-1.3015,-1.3003,-1.3026,-1.3059,-1.3077,-1.3113,-1.3144,-1.317,-1.3177,-1.3159,-1.3156,-1.3168,-1.3175,-1.3177,-1.3179,-1.3029,-1.3154,-1.3152,-1.3152,-1.3151,-1.3151,-1.2982,-1.3011,-1.3023,-1.3052,-1.3063,-1.3079,-1.3107,-1.3107,-1.3134,-1.3163,-1.3153,-1.319,-1.3204,-1.3236,-1.3246,-1.3275,-1.3258,-1.3274,-1.3279,-1.3284,-1.329,-1.317,-1.328,-1.3279,-1.3279,-1.3279,-1.3278,0,-1.3098,-1.3104,-1.313,-1.3154,-1.3178,-1.3156,-1.3173,-1.3194,-1.3228,-1.3241,-1.3265,-1.3302,-1.3332,-1.3335,-1.3363,-1.3386,-1.3379,-1.3394,-1.3394,-1.3396,-1.3303,-1.3292,-1.34,-1.34,-1.34,-1.34,-1.34,-1.34,-1.3161,-1.3209,-1.3205,-1.3259,-1.3265,-1.3301,-1.3313,-1.3328,-1.3339,-1.3382,-1.3406,-1.3407,-1.3417,-1.3445,-1.3471,-1.3471,-1.3484,-1.3503,-1.3501,-1.3415,-1.3403,-1.3391,-1.338,-1.3506,-1.3506,-1.3591,-1.3592,-1.3593]},{"header":{"parameterUnit":"m.s-1","parameterCategory":1,"la1":30.2991,"la2":30.254,"lo1":-89.0895,"lo2":-89.0444,"dy":0.0017,"dx":0.0017,"nx":28,"ny":28,"refTime":"2025-01-01T09:00:00:Z","depth":0,"parameterNumber":3,"parameterNumberName":"V-component_of_WINDS"},"data":[0,0,0,0,0,0,0,0,0,0,0,0,0,0,0,0,0,0,0,0,0,0,0,0,0,0,0,0,0,0,0,0,0,0,0,0,0,0,0,0,0,0,0,0,0,0,0,0,0,0,0,0,0,0,0,0,0,0,-5.5974,-5.5975,0,-5.6073,-5.6074,-5.6075,-5.6021,-5.6019,-5.6016,-5.6014,-5.611,-5.6115,-5.612,0,0,0,0,0,0,0,0,0,0,0,0,0,-5.5735,-5.574,-5.5974,-5.5975,-5.5977,-5.6073,-5.6074,-5.6075,-5.6022,-5.6019,-5.6015,-5.6012,-5.6109,-5.6115,-5.6121,0,0,0,0,0,0,0,0,0,0,0,0,0,-5.5837,-5.5741,-5.5974,-5.5962,-5.5961,-5.6072,-5.6074,-5.6076,-5.6023,-5.6019,-5.6015,-5.6011,-5.6107,-5.6114,-5.6122,-5.6249,0,0,-5.6145,-5.6148,0,0,0,0,0,0,0,0,-5.5831,-5.5846,-5.5962,-5.5963,-5.5963,-5.6031,-5.6025,-5.6134,-5.6024,-5.5999,-5.6013,-5.6009,-5.6087,-5.6096,-5.6123,-5.6254,-5.6258,-5.6145,-5.615,-5.6153,-5.6156,0,0,0,0,0,0,0,-5.5824,-5.5841,-5.6013,-5.5964,-5.5964,-5.595,-5.596,-5.6046,-5.6064,-5.6001,-5.5997,-5.601,-5.6086,-5.6116,-5.6125,-5.6259,-5.6145,-5.6152,-5.6157,-5.616,-5.65,-5.6504,0,0,0,0,0,0,-5.5818,-5.5836,-5.601,-5.6016,-5.5886,-5.5957,-5.5969,-5.6013,-5.6063,-5.6067,-5.6013,-5.6007,-5.6105,-5.6116,-5.6128,-5.6282,-5.6153,-5.616,-5.6165,-5.6495,-5.6501,-5.6506,0,0,0,0,0,0,-5.5814,-5.5835,-5.6006,-5.5925,-5.5946,-5.5966,-5.6016,-5.6017,-5.6047,-5.6073,-5.6075,-5.6041,-5.6102,-5.6117,-5.622,-5.6284,-5.6164,-5.6171,-5.649,-5.6497,-5.6503,-5.6589,0,0,0,0,0,0,-5.5807,-5.5833,-5.5883,-5.5927,-5.595,-5.6098,-5.602,-5.6022,-5.606,-5.6053,-5.6099,-5.6102,-5.61,-5.6209,-5.6228,-5.6293,-5.6177,-5.6485,-5.6493,-5.6501,-5.6581,-5.6598,-5.6613,0,0,0,0,0,-5.5799,-5.5902,-5.5885,-5.5907,-5.6013,-5.6101,-5.6115,-5.6111,-5.6066,-5.6115,-5.6132,-5.6101,-5.6274,-5.622,-5.624,-5.6309,-5.648,-5.6491,-5.6501,-5.6574,-5.6595,-5.6613,0,0,0,0,0,0,-5.5863,-5.5907,-5.589,-5.601,-5.6053,-5.6092,-5.6154,-5.6134,-5.6188,-5.6179,-5.6171,-5.6182,-5.6289,-5.6308,-5.6247,-5.6435,-5.637,-5.6385,-5.6419,-5.6439,-5.6455,-5.6448,-5.6183,0,0,0,0,0,-5.5892,-5.5961,-5.5995,-5.6098,-5.6121,-5.6134,-5.6173,-5.6166,-5.6209,-5.6227,-5.6251,-5.6292,-5.6356,-5.6398,-5.6458,-5.6583,-5.6592,-5.664,-5.6656,-5.6669,-5.6682,-5.6751,-5.6773,-5.6539,-5.6539,-5.6538,0,0,-5.5951,-5.5983,-5.6027,-5.6112,-5.6144,-5.6216,-5.615,-5.6227,-5.628,-5.6238,-5.6337,-5.6356,-5.6402,-5.6517,-5.6568,-5.6536,-5.6749,-5.6682,-5.6692,-5.6698,-5.6763,-5.6785,-5.6805,-5.6546,-5.6544,-5.6543,0,0,-5.6095,-5.6127,-5.6217,-5.6251,-5.6301,-5.631,-5.6331,-5.6375,-5.6386,-5.6486,-5.6456,-5.6518,-5.6627,-5.6662,-5.6694,-5.6853,-5.6826,-5.6872,-5.6956,-5.7023,-5.7041,-5.7058,-5.7115,-5.7136,-5.6885,-5.6885,-5.6885,0,-5.6162,-5.627,-5.6266,-5.6347,-5.6385,-5.6352,-5.6443,-5.6475,-5.6542,-5.6568,-5.6532,-5.667,-5.6698,-5.6821,-5.686,-5.6887,-5.6911,-5.6867,-5.7039,-5.7056,-5.7071,-5.7126,-5.7147,-5.689,-5.689,-5.6889,-5.6889,0,-5.635,-5.6426,-5.6492,-5.656,-5.6605,-5.6691,-5.6698,-5.6744,-5.6734,-5.6746,-5.6848,-5.6881,-5.6948,-5.6976,-5.6966,-5.7098,-5.7077,-5.704,-5.6975,-5.7099,-5.715,-5.7171,-5.6898,-5.6896,-5.6894,-5.6893,0,0,-5.6539,-5.6604,-5.6628,-5.6659,-5.6712,-5.677,-5.6853,-5.6921,-5.6961,-5.7007,-5.7078,-5.7172,-5.7139,-5.7175,-5.7168,-5.7227,-5.7352,-5.7183,-5.7184,-5.7214,-5.75,-5.7528,-5.7553,-5.7334,-5.7338,-5.7341,-5.7497,0,-5.6688,-5.6837,-5.6835,-5.6973,-5.7042,-5.7012,-5.7084,-5.7125,-5.7138,-5.7198,-5.7211,-5.7279,-5.723,-5.7252,-5.7308,-5.7325,-5.7409,-5.7313,-5.7399,-5.7402,-5.739,-5.758,-5.761,-5.7755,-5.7516,-5.752,-5.7522,0,-5.6882,-5.6938,-5.7083,-5.7127,-5.7156,-5.7222,-5.7284,-5.7342,-5.7386,-5.7392,-5.7433,-5.7418,-5.7502,-5.7434,-5.755,-5.7485,-5.7519,-5.7533,-5.7538,-5.7547,-5.7471,-5.7595,-5.7801,-5.7823,-5.7554,-5.7551,-5.7549,0,-5.7007,-5.7118,-5.7219,-5.7246,-5.73,-5.7347,-5.7372,-5.7412,-5.7453,-5.7506,-5.7533,-5.7594,-5.7628,-5.7676,-5.7677,-5.7627,-5.7795,-5.7726,-5.7801,-5.7802,-5.7839,-5.7837,-5.8055,-5.7859,-5.7859,-5.7859,-5.7858,0,-5.7175,-5.7265,-5.7276,-5.7339,-5.7439,-5.7436,-5.7534,-5.7554,-5.759,-5.7655,-5.7631,-5.7692,-5.769,-5.7752,-5.7753,-5.7849,-5.7864,-5.7871,-5.787,-5.7874,-5.7873,-5.7897,-5.7888,-5.7864,-5.7863,-5.7862,-5.7861,0,-5.7331,-5.7343,-5.7451,-5.7494,-5.7507,-5.7579,-5.7614,-5.7673,-5.7685,-5.7767,-5.7786,-5.7804,-5.7876,-5.7881,-5.7963,-5.7964,-5.8082,-5.8069,-5.8068,-5.8066,-5.8141,-5.8135,-5.8384,-5.8416,-5.8198,-5.82,-5.8202,0,-5.7438,-5.7507,-5.7558,-5.7601,-5.7629,-5.7697,-5.7739,-5.7738,-5.7783,-5.784,-5.7892,-5.7961,-5.8017,-5.8133,-5.8152,-5.8215,-5.8205,-5.8288,-5.8214,-5.8216,-5.8208,-5.8204,-5.8211,-5.8302,-5.8305,-5.8307,-5.8308,0,-5.7627,-5.763,-5.7692,-5.7758,-5.7809,-5.786,-5.7907,-5.7943,-5.7947,-5.7999,-5.8073,-5.8116,-5.8201,-5.8271,-5.8333,-5.8356,-5.8334,-5.8331,-5.8352,-5.8357,-5.8354,-5.8358,-5.8108,-5.8326,-5.8324,-5.8323,-5.8322,-5.8321,-5.7763,-5.7824,-5.787,-5.794,-5.7976,-5.8021,-5.8079,-5.8099,-5.8161,-5.8232,-5.8227,-5.8309,-5.8351,-5.8433,-5.8461,-5.8524,-5.8496,-5.8526,-5.8534,-5.8542,-5.855,-5.8343,-5.8535,-5.8534,-5.8534,-5.8534,-5.8533,0,-5.7952,-5.7981,-5.8046,-5.8114,-5.817,-5.8145,-5.8196,-5.8243,-5.8317,-5.8359,-5.8415,-5.8501,-5.8568,-5.8593,-5.8659,-5.8705,-5.8696,-5.8722,-5.8719,-5.8725,-5.8571,-5.8547,-5.8728,-5.8728,-5.8728,-5.8728,-5.8728,-5.8728,-5.8058,-5.8159,-5.8167,-5.8286,-5.8313,-5.8395,-5.8427,-5.8468,-5.8502,-5.8599,-5.8656,-5.8672,-5.8708,-5.8776,-5.8836,-5.8842,-5.8867,-5.8898,-5.89,-5.8755,-5.8736,-5.8717,-5.8695,-5.8904,-5.8904,-5.9048,-5.905,-5.9051]}]]